Home > Weather > State College > Past weeks

Flag for U.S.A. Weather for the Past 2 Weeks in State College, Pennsylvania, U.S.A.

Now
30 °F

Overcast.


Feels Like: 21 °F
Forecast: 21 / 29 °F
Wind: 12 mph from Southwest

Location: University Park Airport

Current Time: Feb 9, 2016 at 9:55:53 PM

Latest Report: Feb 9, 2016 at 8:53 PM


Visibility: 10 mi

Pressure: 29.59 "Hg

Humidity: 80%

Dew point: 25 °F

Location of State CollegeLocation

Historic Weather in State College — Graph

°F

State College Temperature Yesterday

Maximum temperature yesterday: 41 °F (at 1:53 PM)
Minimum temperature yesterday: 23 °F (at 6:53 AM)
Average temperature yesterday: 31 °F

High & Low Weather Summary for the Past Weeks

 TemperatureHumidityPressure
High59 °F (Jan 31, 1:53 PM)100% (Feb 3, 7:53 PM)30.33 "Hg (Feb 3, 7:53 PM)
Low17 °F (Jan 30, 4:55 AM)31% (Jan 30, 3:53 PM)29.48 "Hg (Feb 9, 1:53 PM)
Average34 °F69%29.95 "Hg
* Reported Jan 25 6:53 PM — Feb 9 6:53 PM, State College, Weather by CustomWeather, © 2016

Note: Actual official high and low records may vary slightly from our data, if they occured in-between our weather recording intervals... More about our weather records

Advertising

State College Weather History for the Previous 24 Hours

 ConditionsComfort  
Time TempWeatherWind HumidityBarometerVisibility
6:53 PM
Tue, Feb 9
30 °FMostly cloudy.14 mph86%29.57 "Hg10 mi
5:53 PM30 °FLight snow. Ice fog.9 mph86%29.54 "Hg3 mi
4:53 PM30 °FLight snow. Ice fog.10 mph100%29.52 "Hg1 mi
3:53 PM32 °FLight snow. Ice fog.8 mph93%29.49 "Hg1 mi
2:53 PM32 °FMore clouds than sun.No wind100%29.48 "Hg7 mi
1:53 PM32 °FLight snow. Ice fog.No wind93%29.48 "Hg2 mi
12:53 PM32 °FLight snow. Ice fog.No wind93%29.49 "Hg1 mi
11:53 AM30 °FLight snow. Ice fog.No wind100%29.52 "Hg1 mi
10:53 AM30 °FLight snow. Ice fog.No wind93%29.53 "Hg2 mi
9:53 AM30 °FLight snow. Ice fog.3 mph100%29.54 "Hg1 mi
8:53 AM30 °FLight snow. Ice fog.No wind100%29.54 "Hg2 mi
7:53 AM32 °FLight snow. Ice fog.3 mph93%29.53 "Hg1 mi
6:53 AM32 °FLight snow. Low clouds.No wind93%29.52 "Hg4 mi
5:53 AM32 °FLight snow. Low clouds.No wind93%29.51 "Hg5 mi
5:15 AM33 °FLow clouds.3 mph93%29.51 "Hg7 mi
4:55 AM33 °FLow clouds.5 mph94%29.51 "Hg7 mi
4:15 AM33 °FOvercast.No wind90%29.51 "Hg10 mi
3:55 AM33 °FOvercast.No wind88%29.52 "Hg10 mi
3:15 AM34 °FOvercast.No wind86%29.53 "Hg10 mi
2:55 AM34 °FOvercast.3 mph86%29.54 "Hg10 mi
2:15 AM34 °FOvercast.5 mph86%29.54 "Hg10 mi
1:55 AM34 °FOvercast.3 mph86%29.55 "Hg10 mi
1:35 AM34 °FOvercast.3 mph85%29.56 "Hg10 mi
1:15 AM34 °FOvercast.No wind85%29.56 "Hg10 mi
12:55 AM34 °FOvercast.No wind85%29.57 "Hg10 mi
12:15 AM34 °FOvercast.No wind85%29.58 "Hg10 mi
11:55 PM
Mon, Feb 8
34 °FOvercast.No wind85%29.58 "Hg10 mi
11:15 PM34 °FOvercast.3 mph85%29.59 "Hg10 mi
10:55 PM33 °FMostly cloudy.No wind85%29.60 "Hg10 mi
10:15 PM33 °FMostly cloudy.No wind86%29.61 "Hg10 mi
9:55 PM34 °FMostly cloudy.No wind84%29.61 "Hg10 mi
Weather by CustomWeather, © 2016

See weather overviewHow to use our weather pages